Portada
METAR-TAF:

METAR-TAF

Aeroports :

Jinotega, Nicaragua

latitud: 13-05N, longitud: 085-59W, altitud: 985 m

Observació

L'informe es va fer fa 12 hores i 35 minuts, a les 23:00 UTC
Vent 12 kt del Nord
Temperatura 19°C
Humitat 88%
Pressió 1011 hPa
Visibilitat: 4000 m
Cel ennuvolat a una alçada de 1600 ft
plugim

METAR: MNJG 182300Z 36012KT 4000 -DZ BKN016 19/17 Q1011

Hora: 05:35 (11:35 UTC)


TAF: manca

Observacions i pronòstics meteorològics de més de 4000 aeroports (METAR i TAF).

Les estacions disponibles són els punts grocs i vermells al mapa.

Posi el ratolí al punt desitjat per veure el nom de l'estació.

Feu clic per veure les observacions i els pronòstics meteorològics.

Per canviar el mapa: feu clic els botons verds amb una creu de color negre per apropar; al botó verd amb un guió per allunyar la imatge; o en les fletxes verdes per a mapes adjacents.


METAR-TAF: